When you browse on this site, cookies collect data to enhance your experience and personalize the content and advertising you see.
Visit our Privacy Policy to learn more. By continuing to use the site, you agree to this use of cookies and data.
  • In Latvia
  • List of Countries
  • For 7 days
  • Water Temperature
  • Satellite Maps
  • Weather Map
  • Weather Widgets
  • user-avatar
    Login

    Hourly Weather Qala i Naw

    Today, 21 February, Thursday

    Time Temperature Precipitation Wind Pressure Humidity
    00:00 -3°C° 0.1 mm 2 mps 686 mmHg 90%
    01:00 -1°C° 0.1 mm 1 mps 686 mmHg 90%
    02:00 -2°C° 0 mm 1 mps 686 mmHg 90%
    03:00 -2°C° 0 mm 1 mps 686 mmHg 90%
    04:00 -3°C° 0 mm 0 mps 686 mmHg 90%
    05:00 -3°C° 0 mm 0 mps 686 mmHg 88%
    06:00 -2°C° 0 mm 1 mps 686 mmHg 85%
    07:00 -2°C° 0 mm 1 mps 687 mmHg 82%
    08:00 0°C° 0 mm 1 mps 686 mmHg 78%
    09:00 +1°C° 0 mm 1 mps 686 mmHg 74%
    10:00 +2°C° 0 mm 1 mps 686 mmHg 70%
    11:00 +3°C° 0 mm 1 mps 686 mmHg 68%
    12:00 +4°C° 0 mm 1 mps 685 mmHg 67%
    13:00 +5°C° 0 mm 2 mps 685 mmHg 65%
    14:00 +5°C° 0 mm 2 mps 685 mmHg 64%
    15:00 +5°C° 0 mm 2 mps 684 mmHg 63%
    16:00 +6°C° 0 mm 2 mps 684 mmHg 62%
    17:00 +6°C° 0 mm 1 mps 684 mmHg 64%
    18:00 +5°C° 0 mm 1 mps 684 mmHg 66%
    19:00 +4°C° 0 mm 1 mps 684 mmHg 68%
    20:00 +4°C° 0 mm 1 mps 684 mmHg 65%
    21:00 +3°C° 0 mm 2 mps 684 mmHg 62%
    22:00 +3°C° 0 mm 2 mps 685 mmHg 59%
    23:00 +3°C° 0 mm 2 mps 684 mmHg 57%

    Tomorrow, 22 February, Friday

    Time Temperature Precipitation Wind Pressure Humidity
    00:00 +3°C° 0 mm 2 mps 684 mmHg 56%
    01:00 +2°C° 0 mm 3 mps 684 mmHg 54%
    02:00 +2°C° 0 mm 3 mps 684 mmHg 54%
    03:00 +2°C° 0 mm 3 mps 684 mmHg 53%
    04:00 +2°C° 0 mm 3 mps 683 mmHg 52%
    05:00 +1°C° 0 mm 4 mps 683 mmHg 51%
    06:00 +1°C° 0 mm 4 mps 683 mmHg 49%
    07:00 +1°C° 0 mm 4 mps 684 mmHg 47%
    08:00 +4°C° 0 mm 4 mps 684 mmHg 44%
    09:00 +7°C° 0 mm 3 mps 684 mmHg 40%
    10:00 +9°C° 0 mm 3 mps 684 mmHg 37%
    11:00 +10°C° 0 mm 2 mps 683 mmHg 35%
    12:00 +12°C° 0 mm 2 mps 683 mmHg 33%
    13:00 +13°C° 0 mm 1 mps 682 mmHg 31%
    14:00 +13°C° 0 mm 1 mps 682 mmHg 30%
    15:00 +14°C° 0 mm 1 mps 682 mmHg 29%
    16:00 +14°C° 0 mm 1 mps 682 mmHg 28%
    17:00 +12°C° 0 mm 1 mps 682 mmHg 31%
    18:00 +11°C° 0 mm 1 mps 682 mmHg 35%
    19:00 +8°C° 0 mm 2 mps 682 mmHg 39%
    20:00 +8°C° 0 mm 2 mps 683 mmHg 41%
    21:00 +7°C° 0 mm 2 mps 683 mmHg 43%
    22:00 +7°C° 0 mm 2 mps 683 mmHg 44%
    23:00 +7°C° 0 mm 2 mps 683 mmHg 45%

    Day after tomorrow, 23 February, Saturday

    Time Temperature Precipitation Wind Pressure Humidity
    00:00 +6°C° 0 mm 2 mps 683 mmHg 46%
    01:00 +6°C° 0 mm 2 mps 683 mmHg 47%
    02:00 +6°C° 0 mm 2 mps 683 mmHg 48%
    03:00 +6°C° 0 mm 2 mps 682 mmHg 48%
    04:00 +5°C° 0 mm 2 mps 682 mmHg 49%
    05:00 +5°C° 0 mm 2 mps 682 mmHg 49%
    06:00 +5°C° 0 mm 2 mps 683 mmHg 49%
    07:00 +5°C° 0 mm 2 mps 683 mmHg 49%
    08:00 +8°C° 0 mm 1 mps 683 mmHg 46%
    09:00 +10°C° 0 mm 1 mps 684 mmHg 43%
    10:00 +11°C° 0 mm 1 mps 684 mmHg 41%
    11:00 +12°C° 0 mm 1 mps 684 mmHg 39%
    12:00 +13°C° 0 mm 1 mps 683 mmHg 38%
    13:00 +13°C° 0 mm 0 mps 683 mmHg 36%
    14:00 +14°C° 0 mm 1 mps 683 mmHg 35%
    15:00 +14°C° 0 mm 1 mps 682 mmHg 34%
    16:00 +14°C° 0 mm 1 mps 682 mmHg 34%
    17:00 +12°C° 0 mm 1 mps 682 mmHg 39%
    18:00 +11°C° 0 mm 1 mps 683 mmHg 44%
    19:00 +10°C° 0 mm 1 mps 683 mmHg 49%
    20:00 +9°C° 0 mm 1 mps 683 mmHg 51%
    21:00 +9°C° 0 mm 1 mps 683 mmHg 53%
    22:00 +8°C° 0 mm 1 mps 683 mmHg 55%
    23:00 +8°C° 0 mm 1 mps 683 mmHg 56%

    24 February, Sunday

    Time Temperature Precipitation Wind Pressure Humidity
    00:00 +7°C° 0 mm 1 mps 683 mmHg 56%
    01:00 +7°C° 0 mm 1 mps 682 mmHg 57%
    02:00 +7°C° 0 mm 1 mps 682 mmHg 58%
    03:00 +6°C° 0 mm 1 mps 682 mmHg 59%
    04:00 +6°C° 0 mm 1 mps 682 mmHg 60%
    05:00 +6°C° 0 mm 1 mps 682 mmHg 60%
    06:00 +6°C° 0 mm 1 mps 682 mmHg 61%
    07:00 +5°C° 0 mm 1 mps 683 mmHg 61%
    08:00 +7°C° 0 mm 1 mps 683 mmHg 56%
    09:00 +7°C° 0 mm 0 mps 683 mmHg 50%
    10:00 +9°C° 0 mm 0 mps 683 mmHg 44%
    11:00 +10°C° 0 mm 1 mps 683 mmHg 43%
    12:00 +11°C° 0 mm 1 mps 682 mmHg 41%
    13:00 +12°C° 0 mm 2 mps 682 mmHg 39%
    14:00 +12°C° 0 mm 2 mps 682 mmHg 41%
    15:00 +10°C° 0 mm 2 mps 682 mmHg 42%
    16:00 +10°C° 0 mm 3 mps 682 mmHg 44%
    17:00 +9°C° 0 mm 2 mps 682 mmHg 50%
    18:00 +9°C° 0 mm 2 mps 682 mmHg 57%
    19:00 +9°C° 0 mm 1 mps 683 mmHg 64%
    20:00 +8°C° 0 mm 1 mps 683 mmHg 66%
    21:00 +8°C° 0 mm 1 mps 683 mmHg 67%
    22:00 +7°C° 0 mm 1 mps 684 mmHg 69%
    23:00 +7°C° 0 mm 1 mps 684 mmHg 70%

    25 February, Monday

    Time Temperature Precipitation Wind Pressure Humidity
    00:00 +6°C° 0 mm 1 mps 683 mmHg 70%
    01:00 +6°C° 0 mm 1 mps 683 mmHg 71%
    02:00 +5°C° 0 mm 1 mps 683 mmHg 70%
    03:00 +5°C° 0 mm 1 mps 683 mmHg 70%
    04:00 +5°C° 0 mm 1 mps 683 mmHg 69%
    05:00 +5°C° 0 mm 1 mps 683 mmHg 67%
    06:00 +5°C° 0 mm 1 mps 684 mmHg 65%
    07:00 +5°C° 0 mm 1 mps 684 mmHg 63%
    08:00 +6°C° 0 mm 1 mps 684 mmHg 57%
    09:00 +7°C° 0 mm 1 mps 684 mmHg 50%
    10:00 +8°C° 0 mm 1 mps 684 mmHg 43%
    11:00 +8°C° 0 mm 1 mps 684 mmHg 42%
    12:00 +9°C° 0 mm 1 mps 683 mmHg 41%
    13:00 +9°C° 0 mm 2 mps 683 mmHg 40%
    14:00 +9°C° 0 mm 2 mps 682 mmHg 40%
    15:00 +9°C° 0 mm 2 mps 682 mmHg 41%
    16:00 +9°C° 0 mm 2 mps 682 mmHg 41%
    17:00 +9°C° 0 mm 1 mps 682 mmHg 46%
    18:00 +8°C° 0 mm 1 mps 683 mmHg 50%
    19:00 +8°C° 0 mm 1 mps 683 mmHg 54%
    20:00 +7°C° 0 mm 1 mps 683 mmHg 55%
    21:00 +7°C° 0 mm 1 mps 683 mmHg 55%
    22:00 +7°C° 0 mm 1 mps 683 mmHg 55%
    23:00 +6°C° 0 mm 1 mps 683 mmHg 54%

    26 February, Tuesday

    Time Temperature Precipitation Wind Pressure Humidity
    00:00 +5°C° 0 mm 2 mps 683 mmHg 53%
    01:00 +5°C° 0 mm 2 mps 682 mmHg 52%
    02:00 +4°C° 0 mm 2 mps 682 mmHg 52%
    03:00 +4°C° 0 mm 2 mps 682 mmHg 51%
    04:00 +4°C° 0 mm 2 mps 682 mmHg 50%
    05:00 +4°C° 0 mm 2 mps 682 mmHg 48%
    06:00 +4°C° 0 mm 2 mps 682 mmHg 47%
    07:00 +3°C° 0 mm 3 mps 682 mmHg 45%
    08:00 +5°C° 0 mm 3 mps 682 mmHg 38%
    09:00 +8°C° 0 mm 2 mps 682 mmHg 30%
    10:00 +12°C° 0 mm 2 mps 682 mmHg 23%
    11:00 +13°C° 0 mm 2 mps 681 mmHg 21%
    12:00 +14°C° 0 mm 2 mps 681 mmHg 18%
    13:00 +15°C° 0 mm 2 mps 680 mmHg 16%
    14:00 +15°C° 0 mm 2 mps 679 mmHg 16%
    15:00 +15°C° 0 mm 2 mps 679 mmHg 17%
    16:00 +16°C° 0 mm 2 mps 678 mmHg 17%
    17:00 +13°C° 0 mm 3 mps 678 mmHg 20%
    18:00 +12°C° 0 mm 3 mps 678 mmHg 24%
    19:00 +10°C° 0 mm 4 mps 678 mmHg 27%
    20:00 +10°C° 0 mm 4 mps 677 mmHg 28%
    21:00 +9°C° 0 mm 5 mps 677 mmHg 29%
    22:00 +8°C° 0 mm 5 mps 677 mmHg 30%
    23:00 +8°C° 0 mm 5 mps 676 mmHg 31%
    Show more